Time,TemperatureF,DewpointF,PressureIn,WindDirection,WindDirectionDegrees,WindSpeedMPH,WindSpeedGustMPH,Humidity,HourlyPrecipIn,Conditions,Clouds,dailyrainin,SoftwareType,DateUTC
2013-06-13 00:12:00,66.7,20.0,30.33,SSW,192,5.0,13.0,17,0.00,,,0.00,weatherlink.com 1.10,2013-06-13 06:12:00,
2013-06-13 00:27:00,66.7,20.0,30.33,South,175,7.0,10.0,17,0.00,,,0.00,weatherlink.com 1.10,2013-06-13 06:27:00,
2013-06-13 00:42:00,66.6,20.0,30.32,South,179,8.0,10.0,17,0.00,,,0.00,weatherlink.com 1.10,2013-06-13 06:42:00,
2013-06-13 00:57:00,66.3,20.0,30.32,South,185,4.0,10.0,17,0.00,,,0.00,weatherlink.com 1.10,2013-06-13 06:57:00,
2013-06-13 01:12:00,65.8,21.0,30.32,SSE,165,6.0,12.0,18,0.00,,,0.00,weatherlink.com 1.10,2013-06-13 07:12:00,
2013-06-13 01:27:00,65.8,21.0,30.32,SSE,157,8.0,10.0,18,0.00,,,0.00,weatherlink.com 1.10,2013-06-13 07:27:00,
2013-06-13 01:42:00,65.4,21.0,30.32,SSW,198,6.0,15.0,18,0.00,,,0.00,weatherlink.com 1.10,2013-06-13 07:42:00,
2013-06-13 01:57:00,65.5,21.0,30.31,South,181,7.0,14.0,18,0.00,,,0.00,weatherlink.com 1.10,2013-06-13 07:57:00,
2013-06-13 02:12:00,65.8,21.0,30.31,South,189,9.0,13.0,18,0.00,,,0.00,weatherlink.com 1.10,2013-06-13 08:12:00,
2013-06-13 02:27:00,66.0,22.0,30.31,South,181,11.0,14.0,19,0.00,,,0.00,weatherlink.com 1.10,2013-06-13 08:27:00,
2013-06-13 02:43:00,66.2,21.0,30.31,South,169,8.0,12.0,18,0.00,,,0.00,weatherlink.com 1.10,2013-06-13 08:43:00,
2013-06-13 02:58:00,66.2,23.0,30.31,South,188,7.0,10.0,19,0.00,,,0.00,weatherlink.com 1.10,2013-06-13 08:58:00,
2013-06-13 03:13:00,66.3,21.0,30.31,SSW,201,6.0,12.0,18,0.00,,,0.00,weatherlink.com 1.10,2013-06-13 09:13:00,
2013-06-13 03:28:00,66.5,22.0,30.31,SE,144,7.0,11.0,18,0.00,,,0.00,weatherlink.com 1.10,2013-06-13 09:28:00,
2013-06-13 03:43:00,66.3,23.0,30.31,South,172,4.0,10.0,19,0.00,,,0.00,weatherlink.com 1.10,2013-06-13 09:43:00,
2013-06-13 03:58:00,66.2,23.0,30.31,SE,144,6.0,11.0,19,0.00,,,0.00,weatherlink.com 1.10,2013-06-13 09:58:00,
2013-06-13 04:13:00,66.0,22.0,30.30,South,170,6.0,9.0,19,0.00,,,0.00,weatherlink.com 1.10,2013-06-13 10:13:00,
2013-06-13 04:28:00,65.5,23.0,30.30,South,179,5.0,9.0,20,0.00,,,0.00,weatherlink.com 1.10,2013-06-13 10:28:00,
2013-06-13 04:43:00,65.2,22.0,30.30,South,174,8.0,14.0,19,0.00,,,0.00,weatherlink.com 1.10,2013-06-13 10:43:00,
2013-06-13 04:58:00,65.6,22.0,30.30,South,188,4.0,9.0,19,0.00,,,0.00,weatherlink.com 1.10,2013-06-13 10:58:00,
2013-06-13 05:13:00,65.3,23.0,30.30,South,191,5.0,10.0,20,0.00,,,0.00,weatherlink.com 1.10,2013-06-13 11:13:00,
2013-06-13 05:28:00,64.8,23.0,30.30,South,190,6.0,11.0,20,0.00,,,0.00,weatherlink.com 1.10,2013-06-13 11:28:00,
2013-06-13 05:43:00,64.8,23.0,30.31,South,173,5.0,10.0,20,0.00,,,0.00,weatherlink.com 1.10,2013-06-13 11:43:00,
2013-06-13 05:58:00,64.9,23.0,30.30,SSE,161,6.0,10.0,20,0.00,,,0.00,weatherlink.com 1.10,2013-06-13 11:58:00,
2013-06-13 06:13:00,64.9,23.0,30.31,SSE,165,8.0,11.0,20,0.00,,,0.00,weatherlink.com 1.10,2013-06-13 12:13:00,
2013-06-13 06:28:00,65.0,23.0,30.31,South,186,12.0,12.0,20,0.00,,,0.00,weatherlink.com 1.10,2013-06-13 12:28:00,
2013-06-13 06:43:00,65.6,23.0,30.31,South,169,7.0,9.0,20,0.00,,,0.00,weatherlink.com 1.10,2013-06-13 12:43:00,
2013-06-13 06:58:00,65.4,24.0,30.31,South,173,6.0,12.0,21,0.00,,,0.00,weatherlink.com 1.10,2013-06-13 12:58:00,
2013-06-13 07:13:00,65.0,25.0,30.31,SSE,166,5.0,9.0,22,0.00,,,0.00,weatherlink.com 1.10,2013-06-13 13:13:00,
2013-06-13 07:28:00,65.2,27.0,30.32,South,184,2.0,7.0,24,0.00,,,0.00,weatherlink.com 1.10,2013-06-13 13:28:00,
2013-06-13 07:43:00,67.1,27.0,30.32,SSW,204,4.0,10.0,22,0.00,,,0.00,weatherlink.com 1.10,2013-06-13 13:43:00,
2013-06-13 07:58:00,69.0,26.0,30.32,South,169,5.0,10.0,20,0.00,,,0.00,weatherlink.com 1.10,2013-06-13 13:58:00,
2013-06-13 08:13:00,71.3,27.0,30.32,SE,138,7.0,12.0,19,0.00,,,0.00,weatherlink.com 1.10,2013-06-13 14:13:00,
2013-06-13 08:28:00,72.7,27.0,30.32,SE,130,2.0,8.0,18,0.00,,,0.00,weatherlink.com 1.10,2013-06-13 14:28:00,
2013-06-13 08:43:00,74.2,25.0,30.32,SSE,148,0.0,6.0,16,0.00,,,0.00,weatherlink.com 1.10,2013-06-13 14:43:00,
2013-06-13 08:58:00,76.1,27.0,30.33,SE,140,2.0,7.0,16,0.00,,,0.00,weatherlink.com 1.10,2013-06-13 14:58:00,
2013-06-13 09:13:00,78.2,28.0,30.32,SE,128,0.0,6.0,16,0.00,,,0.00,weatherlink.com 1.10,2013-06-13 15:13:00,
2013-06-13 09:28:00,78.5,27.0,30.32,SSE,157,9.0,13.0,15,0.00,,,0.00,weatherlink.com 1.10,2013-06-13 15:28:00,
2013-06-13 09:43:00,79.9,27.0,30.32,SSW,195,1.0,15.0,14,0.00,,,0.00,weatherlink.com 1.10,2013-06-13 15:43:00,
2013-06-13 09:58:00,81.3,26.0,30.32,SW,214,3.0,15.0,13,0.00,,,0.00,weatherlink.com 1.10,2013-06-13 15:58:00,
2013-06-13 10:13:00,79.5,24.0,30.32,SW,227,16.0,24.0,13,0.00,,,0.00,weatherlink.com 1.10,2013-06-13 16:13:00,
2013-06-13 10:28:00,80.0,25.0,30.32,SW,235,7.0,20.0,13,0.00,,,0.00,weatherlink.com 1.10,2013-06-13 16:28:00,
2013-06-13 10:43:00,81.2,26.0,30.32,SW,222,9.0,22.0,13,0.00,,,0.00,weatherlink.com 1.10,2013-06-13 16:43:00,
2013-06-13 10:58:00,82.1,25.0,30.31,SSW,202,8.0,22.0,12,0.00,,,0.00,weatherlink.com 1.10,2013-06-13 16:58:00,
2013-06-13 11:13:00,81.8,24.0,30.31,WSW,254,17.0,23.0,12,0.00,,,0.00,weatherlink.com 1.10,2013-06-13 17:13:00,
2013-06-13 11:28:00,80.6,25.0,30.32,SSW,203,14.0,26.0,13,0.00,,,0.00,weatherlink.com 1.10,2013-06-13 17:28:00,
2013-06-13 11:43:00,80.5,25.0,30.31,SW,234,11.0,28.0,13,0.00,,,0.00,weatherlink.com 1.10,2013-06-13 17:43:00,
2013-06-13 11:58:00,81.9,22.0,30.31,SW,217,5.0,27.0,11,0.00,,,0.00,weatherlink.com 1.10,2013-06-13 17:58:00,
2013-06-13 12:13:00,81.5,22.0,30.31,SW,230,8.0,36.0,11,0.00,,,0.00,weatherlink.com 1.10,2013-06-13 18:13:00,
2013-06-13 12:28:00,82.9,23.0,30.31,WSW,251,9.0,27.0,11,0.00,,,0.00,weatherlink.com 1.10,2013-06-13 18:28:00,
2013-06-13 12:43:00,83.5,21.0,30.30,SW,216,21.0,25.0,10,0.00,,,0.00,weatherlink.com 1.10,2013-06-13 18:43:00,
2013-06-13 12:59:00,82.4,25.0,30.30,SSW,209,12.0,24.0,12,0.00,,,0.00,weatherlink.com 1.10,2013-06-13 18:59:00,
2013-06-13 13:14:00,83.5,24.0,30.29,SW,222,8.0,23.0,11,0.00,,,0.00,weatherlink.com 1.10,2013-06-13 19:14:00,
2013-06-13 13:29:00,83.6,24.0,30.28,SSE,149,7.0,27.0,11,0.00,,,0.00,weatherlink.com 1.10,2013-06-13 19:29:00,
2013-06-13 13:44:00,83.3,26.0,30.29,SSW,195,8.0,22.0,12,0.00,,,0.00,weatherlink.com 1.10,2013-06-13 19:44:00,
2013-06-13 13:59:00,84.1,26.0,30.28,WSW,250,7.0,26.0,12,0.00,,,0.00,weatherlink.com 1.10,2013-06-13 19:59:00,
2013-06-13 14:14:00,83.3,26.0,30.27,SW,215,12.0,29.0,12,0.00,,,0.00,weatherlink.com 1.10,2013-06-13 20:14:00,
2013-06-13 14:29:00,85.0,25.0,30.27,WSW,243,17.0,23.0,11,0.00,,,0.00,weatherlink.com 1.10,2013-06-13 20:29:00,
2013-06-13 14:44:00,85.3,25.0,30.26,SW,221,5.0,23.0,11,0.00,,,0.00,weatherlink.com 1.10,2013-06-13 20:44:00,
2013-06-13 14:59:00,86.2,24.0,30.26,WSW,240,22.0,22.0,10,0.00,,,0.00,weatherlink.com 1.10,2013-06-13 20:59:00,
2013-06-13 15:14:00,85.5,23.0,30.26,SW,234,11.0,26.0,10,0.00,,,0.00,weatherlink.com 1.10,2013-06-13 21:14:00,
2013-06-13 15:29:00,83.0,23.0,30.25,WSW,242,14.0,22.0,11,0.00,,,0.00,weatherlink.com 1.10,2013-06-13 21:29:00,
2013-06-13 15:44:00,82.3,25.0,30.25,WSW,238,16.0,22.0,12,0.00,,,0.00,weatherlink.com 1.10,2013-06-13 21:44:00,
2013-06-13 15:59:00,81.1,24.0,30.25,West,279,13.0,25.0,12,0.00,,,0.00,weatherlink.com 1.10,2013-06-13 21:59:00,
2013-06-13 16:14:00,81.0,26.0,30.25,WSW,249,6.0,26.0,13,0.00,,,0.00,weatherlink.com 1.10,2013-06-13 22:14:00,
2013-06-13 16:29:00,80.6,25.0,30.24,SW,219,18.0,24.0,13,0.00,,,0.00,weatherlink.com 1.10,2013-06-13 22:29:00,
2013-06-13 16:44:00,79.8,26.0,30.25,South,190,6.0,20.0,14,0.00,,,0.00,weatherlink.com 1.10,2013-06-13 22:44:00,
2013-06-13 16:59:00,79.3,26.0,30.25,SSW,208,8.0,19.0,14,0.00,,,0.00,weatherlink.com 1.10,2013-06-13 22:59:00,
2013-06-13 17:14:00,78.9,27.0,30.25,SW,221,9.0,19.0,15,0.00,,,0.00,weatherlink.com 1.10,2013-06-13 23:14:00,
2013-06-13 17:29:00,78.4,30.0,30.25,SE,138,4.0,16.0,17,0.00,,,0.00,weatherlink.com 1.10,2013-06-13 23:29:00,
2013-06-13 17:44:00,77.1,30.0,30.25,SE,140,8.0,19.0,18,0.00,,,0.00,weatherlink.com 1.10,2013-06-13 23:44:00,
2013-06-13 17:59:00,77.7,29.0,30.24,South,176,7.0,9.0,17,0.00,,,0.00,weatherlink.com 1.10,2013-06-13 23:59:00,
2013-06-13 18:14:00,77.3,31.0,30.23,SSE,154,6.0,12.0,18,0.00,,,0.00,weatherlink.com 1.10,2013-06-14 00:14:00,
2013-06-13 18:29:00,77.5,29.0,30.23,SSW,196,4.0,15.0,17,0.00,,,0.00,weatherlink.com 1.10,2013-06-14 00:29:00,
2013-06-13 18:44:00,78.1,27.0,30.23,South,174,11.0,21.0,15,0.00,,,0.00,weatherlink.com 1.10,2013-06-14 00:44:00,
2013-06-13 18:59:00,77.7,28.0,30.23,South,172,3.0,18.0,16,0.00,,,0.00,weatherlink.com 1.10,2013-06-14 00:59:00,
2013-06-13 19:14:00,77.3,28.0,30.23,SSW,207,11.0,14.0,16,0.00,,,0.00,weatherlink.com 1.10,2013-06-14 01:14:00,
2013-06-13 19:29:00,76.7,27.0,30.23,SE,135,6.0,12.0,16,0.00,,,0.00,weatherlink.com 1.10,2013-06-14 01:29:00,
2013-06-13 19:44:00,76.0,28.0,30.23,SE,136,3.0,10.0,17,0.00,,,0.00,weatherlink.com 1.10,2013-06-14 01:44:00,
2013-06-13 19:59:00,75.5,28.0,30.23,WSW,243,6.0,14.0,17,0.00,,,0.00,weatherlink.com 1.10,2013-06-14 01:59:00,
2013-06-13 20:14:00,74.7,30.0,30.25,SSE,167,17.0,27.0,19,0.00,,,0.00,weatherlink.com 1.10,2013-06-14 02:14:00,
2013-06-13 20:29:00,72.6,32.0,30.23,SSE,165,14.0,31.0,22,0.00,,,0.00,weatherlink.com 1.10,2013-06-14 02:29:00,
2013-06-13 20:44:00,72.4,30.0,30.24,SE,146,2.0,15.0,21,0.00,,,0.00,weatherlink.com 1.10,2013-06-14 02:44:00,
2013-06-13 20:59:00,72.0,31.0,30.26,South,182,10.0,11.0,22,0.00,,,0.00,weatherlink.com 1.10,2013-06-14 02:59:00,
2013-06-13 21:14:00,69.5,37.0,30.30,SSW,196,11.0,44.0,30,0.00,,,0.00,weatherlink.com 1.10,2013-06-14 03:14:00,
2013-06-13 21:29:00,66.5,35.0,30.26,ESE,114,2.0,27.0,31,0.00,,,0.00,weatherlink.com 1.10,2013-06-14 03:29:00,
2013-06-13 21:44:00,64.0,40.0,30.30,South,169,9.0,24.0,41,0.00,,,0.00,weatherlink.com 1.10,2013-06-14 03:44:00,
2013-06-13 21:59:00,62.4,40.0,30.32,South,172,10.0,34.0,44,0.00,,,0.00,weatherlink.com 1.10,2013-06-14 03:59:00,
2013-06-13 22:14:00,63.5,39.0,30.29,SSE,155,24.0,29.0,40,0.00,,,0.00,weatherlink.com 1.10,2013-06-14 04:14:00,
2013-06-13 22:29:00,63.1,40.0,30.30,SE,144,23.0,33.0,43,0.00,,,0.00,weatherlink.com 1.10,2013-06-14 04:29:00,
2013-06-13 22:44:00,62.6,40.0,30.28,SSE,167,9.0,34.0,44,0.00,,,0.00,weatherlink.com 1.10,2013-06-14 04:44:00,
2013-06-13 22:59:00,61.4,40.0,30.27,SSE,149,12.0,25.0,45,0.00,,,0.00,weatherlink.com 1.10,2013-06-14 04:59:00,
2013-06-13 23:14:00,61.8,39.0,30.26,SE,129,9.0,22.0,43,0.00,,,0.00,weatherlink.com 1.10,2013-06-14 05:14:00,
2013-06-13 23:29:00,62.5,38.0,30.26,South,190,12.0,21.0,41,0.00,,,0.00,weatherlink.com 1.10,2013-06-14 05:29:00,
2013-06-13 23:44:00,63.2,38.0,30.26,SE,124,14.0,22.0,39,0.00,,,0.00,weatherlink.com 1.10,2013-06-14 05:44:00,
2013-06-13 23:59:00,64.5,36.0,30.26,SSE,156,12.0,23.0,35,0.00,,,0.00,weatherlink.com 1.10,2013-06-14 05:59:00,